Lid_Strength_Index
1 1 1 1 1 1 2 1 0 0 0 -0 0 0 0 1 1 0 1 1 1 1
1 1 1 1 1 1 0 0 0 0 1 0 -0 1 -0 0 1 1 1 1 1 1
1 1 1 1 1 1 0 0 0 1 1 1 1 1 0 0 0 1 1 1 2 2
1 1 1 1 1 1 0 0 1 1 2 2 1 1 0 0 0 1 1 1 2 2
2 2 1 1 1 0 1 1 2 2 3 1 1 0 1 1 1 1 1 1 2 2
2 2 1 2 1 1 2 1 2 3 2 3 2 1 1 1 1 1 2 1 2 3
3 2 2 2 2 2 2 3 3 3 3 2 3 3 2 1 1 1 1 2 3 4
2 2 3 3 3 3 3 3 3 4 3 5 6 7 5 1 1 2 2 2 3 4
3 4 4 4 4 4 4 4 4 3 4 6 8 10 8 5 2 2 3 3 4 6
4 5 5 4 4 4 4 4 4 5 6 8 9 11 10 8 3 4 4 5 5 6
5 5 5 5 5 5 4 4 5 5 7 8 10 11 10 9 3 4 4 5 6 7
5 6 5 5 6 4 4 4 5 6 7 9 10 11 11 7 2 3 4 9 10 10
6 6 6 6 5 4 4 6 6 7 8 9 9 11 11 7 5 4 7 9 10 10
6 6 6 5 3 4 5 6 7 7 8 7 8 10 11 10 7 7 6 7 9 8